Regional Weather Roundup
Issued by NWS

Home | Current Version | Previous Version | Text Only | Print | Product List | Glossary On
Versions: 1 2 3 4 5 6 7 8 9 10 11 12 13 14 15 16 17 18 19 20 21 22 23 24 25 26 27 28 29 30 31 32 33 34 35 36 37 38 39 40 41 42 43 44 45 46 47 48 49 50
000
ASUS43 KMKX 170800
RWRWI

WISCONSIN REGIONAL WEATHER ROUNDUP
NATIONAL WEATHER SERVICE MILWAUKEE/SULLIVAN WI
200 AM CST SUN DEC 17 2017

NOTE: "FAIR" INDICATES FEW OR NO CLOUDS BELOW 12,000 FEET WITH NO
SIGNIFICANT WEATHER AND/OR OBSTRUCTIONS TO VISIBILITY.

WIZ001-002-006>008-014>016-023>028-170900-
NORTHWEST WISCONSIN

CITY           SKY/WX    TMP DP  RH WIND       PRES   REMARKS
SUPERIOR ARPT  CLOUDY    21  17  82 CALM      30.15S
ASHLAND        CLOUDY    21  15  78 CALM      30.14F
HAYWARD        CLOUDY    22  18  85 E3        30.10F
SIREN          CLOUDY    16  13  90 CALM      30.11R
CUMBERLAND     CLOUDY    21  19  93 E5        30.08S WCI  15
RICE LAKE      CLOUDY    23  21  93 CALM      30.10F
CHETEK         CLOUDY    23  20  91 E3        30.09F
LADYSMITH      CLOUDY    24  20  87 E5        30.11S WCI  18
EAU CLAIRE     NOT AVBL
MENOMONIE      CLOUDY    26  24  93 E6        30.11R FOG     WCI  19
NEW RICHMOND   CLOUDY    20  17  89 CALM      30.10S
OSCEOLA        CLOUDY    19  16  87 CALM      30.13S
$$

WIZ003>005-009-010-017-018-170900-
NORTH CENTRAL WISCONSIN

CITY           SKY/WX    TMP DP  RH WIND       PRES   REMARKS
MANITOWISH WTR CLOUDY    19  19 100 SE3       30.09F FOG
ARBOR VITAE    CLOUDY    22  20  93 SE3       30.09F FOG
WOODRUFF       CLOUDY    22  20  93 SE3       30.09F FOG
RHINELANDER    CLOUDY    21  20  96 E7        30.10F FOG     WCI  12
EAGLE RIVER    CLOUDY    19  19 100 E5        30.10F FOG     WCI  12
LAND O LAKES   CLOUDY    19  18  96 E6        30.12F FOG     WCI  11
PHILLIPS       CLOUDY    20  19  97 E6        30.08F WCI  12
TOMAHAWK       CLOUDY    21  20  94 CALM      30.10F
MEDFORD        CLOUDY    21  19  91 E7        30.06F WCI  13
MERRILL        CLOUDY    21  20  96 E6        30.10F WCI  14
$$

WIZ029-030-035-036-043>047-170900-
CENTRAL WISCONSIN

CITY           SKY/WX    TMP DP  RH WIND       PRES   REMARKS
WAUSAU         CLOUDY    22  19  89 E8        30.09S WCI  12
MOSINEE        CLOUDY    23  21  93 E7        30.11S WCI  15
MARSHFIELD     CLOUDY    23  20  88 E7        30.09R WCI  15
STEVENS POINT  CLOUDY    20  19  96 NE8       30.11F WCI  10
WAUPACA        CLOUDY    26  21  83 CALM      30.13S
WAUTOMA        CLOUDY    25  21  85 NE6       30.13R WCI  18
WISC RAPIDS    CLOUDY    24  19  81 E8        30.12R WCI  15
CAMP DOUGLAS   CLOUDY   N/A N/A N/A E5        30.10S
$$

WIZ011>013-019>022-031-037>040-048>050-170900-
NORTHEAST WISCONSIN

CITY           SKY/WX    TMP DP  RH WIND       PRES   REMARKS
ANTIGO         CLOUDY    20  20  98 E7        30.09F WCI  11
SHAWANO        CLOUDY    23  20  89 CALM      30.15F
OCONTO         CLOUDY    23  20  89 N6        30.16F WCI  15
STURGEON BAY   CLOUDY    28  23  81 E6        30.16F WCI  22
GREEN BAY      CLOUDY    27  21  78 NE8       30.15S WCI  19
MANITOWOC      CLOUDY    29  26  89 NE3       30.15R
APPLETON       CLOUDY    27  21  80 NE7       30.11S WCI  19
CLINTONVILLE   NOT AVBL
OSHKOSH        CLOUDY    28  24  85 NE6       30.13R WCI  22
$$

WIZ032>034-041-042-053>061-170900-
SOUTHWEST WISCONSIN

CITY           SKY/WX    TMP DP  RH WIND       PRES   REMARKS
LA CROSSE      CLOUDY    29  26  89 E5        30.09F WCI  24
SPARTA         CLOUDY    27  24  91 CALM      30.11R
VIROQUA        CLOUDY    27  27 100 CALM      30.07R
BOSCOBEL       CLOUDY    32  28  85 VRB6      30.08F WCI  26
PRAIRIE DU CHI CLOUDY    32  28  84 NE6       30.06F WCI  26
PLATTEVILLE    CLOUDY    31  31 100 E9        30.05S WCI  23
$$

WIZ056-057-062-063-064-067-068-170900-
SOUTH CENTRAL WISCONSIN

CITY           SKY/WX    TMP DP  RH WIND       PRES   REMARKS
REEDSBURG      CLOUDY    28  25  87 E6        30.09R WCI  21
BARABOO/DELLS  CLOUDY    28  24  85 NE5       30.09R WCI  22
LONE ROCK      NOT AVBL
MINERAL POINT  CLOUDY    32  32 100 E7        30.06S FOG     WCI  26
MADISON        CLOUDY    31  28  89 E5        30.10R WCI  26
MIDDLETON      CLOUDY    32  30  91 E6        30.09R WCI  26
WATERTOWN      CLOUDY    32  32 100 E8        30.09R WCI  25
MONROE         CLOUDY    32  32 100 NE8       30.05S FOG     WCI  25
JANESVILLE     CLOUDY    34  34 100 E10       30.07R WCI  26
$$

WIZ051-052-058>065-066-070>072-170900-
SOUTHEAST WISCONSIN

CITY           SKY/WX    TMP DP  RH WIND       PRES   REMARKS
MILWAUKEE      CLOUDY    35  31  85 NE9       30.11R WCI  28
WAUKESHA       CLOUDY    32  28  86 E10       30.10R WCI  24
MILWAUKEE/TIMM CLOUDY    32  28  86 NE7       30.11R WCI  26
RACINE         CLOUDY    35  32  88 NE7       30.12R WCI  29
BURLINGTON     CLOUDY    50  50 100 E6        30.10R
KENOSHA        CLOUDY    35  31  85 NE6       30.10R WCI  30
FOND DU LAC    CLOUDY    30  24  78 E7        30.12R WCI  23
SHEBOYGAN      CLOUDY    31  29  92 E7        30.12S WCI  24
WEST BEND      CLOUDY    32  30  93 E5        30.11R WCI  27
JUNEAU         CLOUDY    30  28  93 NE3       30.10R
$$

LSZ147-162-170900-
LAKE SUPERIOR

STATION/POSITION TIME  TEMP    WIND        PRES    WAVE
                       AIR SEA DIR/SP/G            HT/PER
                 (UTC) (F)     (DEG/KT/KT) (MB)    (FT/S)
DEVILS ISLAND    0700   25     200/  9/ 13 1021.7F
SAXON HARBOR     0730   24                 1020.3S
$$

LMZ867-665-643>646-170900-
LAKE MICHIGAN

STATION/POSITION TIME  TEMP    WIND        PRES    WAVE
                       AIR SEA DIR/SP/G            HT/PER
                 (UTC) (F)     (DEG/KT/KT) (MB)    (FT/S)
NORTHPORT PIER   0740   28      90/  8/ 14 1022.4S
KEWAUNEE LAKESHO 0730   31      70/  7/ 10 1020.0F
SHEBOYGAN LAKESH 0700   32      80/ 11/ 12 1020.6F
PORT WASHINGTON  0740   34      70/  8/ 10 1021.0R
MILWAUKEE LAKESH 0740   34      60/ 10/ 11   N/A
KENOSHA   LAKESH 0700   36      60/ 14/ 15 1018.6
$$

TC  - TEMPERATURE IN CELSIUS
VSB - VISIBILITY IN STATUTE MILES
WCI - WIND CHILL INDEX
HX  - HEAT INDEX





USA.gov is the U.S. government's official web portal to all federal, state and local government web resources and services.